Regional Weather Roundup
Issued by NWS

Home | Current Version | Previous Version | Text Only | Print | Product List | Glossary On
Versions: 1 2 3 4 5 6 7 8 9 10 11 12 13 14 15 16 17 18 19 20 21 22 23 24 25 26 27 28 29 30 31 32 33 34 35 36 37 38 39 40 41 42 43 44 45 46 47 48 49 50
000
ASUS44 KEWX 251410
RWRTX
SOUTH TEXAS REGIONAL WEATHER ROUNDUP
NATIONAL WEATHER SERVICE AUSTIN/SAN ANTONIO TX
900 AM CDT FRI JUL 25 2014

NOTE: "FAIR" INDICATED FEW OR NO CLOUDS BELOW 12,000 FEET WITH NO
SIGNIFICANT WEATHER AND/OR OBSTRUCTIONS TO VISIBILITY.

* - THESE STATIONS ARE NOT NWS OR FAA STATIONS...AND ARE NOT SUBJECT
    TO NWS AND FAA QUALITY CONTROL.

TXZ171-172-183>190-251500-
TEXAS HILL COUNTRY AND EDWARDS PLATEAU

CITY           SKY/WX    TMP DP  RH WIND       PRES   REMARKS
JUNCTION       SUNNY     75  68  78 CALM      30.08S
*LLANO         SUNNY     81  70  69 CALM      30.09F
BURNET         SUNNY     80  69  69 SW7       30.09S
*HORSESHOE BAY SUNNY     80  67  65 CALM      30.07R
*KERRVILLE     CLOUDY    74  72  92 S5        30.10R FOG
*FREDERICKSBRG SUNNY     76  69  79 CALM      30.09S
*ROCKSPRINGS   MOSUNNY   75  72  88 SE7       30.13R FOG
*BOERNE STAGE  CLOUDY    75  70  83 CALM      30.10R
*CASTROVILLE   CLOUDY    78  74  87 S7        30.07R
HONDO          CLOUDY    77  73  87 SE5       30.08R
*UVALDE        MOSUNNY   78  75  90 E6        30.06R
DEL RIO        SUNNY     81  71  71 SE8       30.02R
LAUGHLIN AFB   SUNNY     80  72  76 SE8       30.04R
CARRIZO SPRGS  SUNNY     79  73  83 E6        30.02R
$$

TXZ173-191>194-202-209-217>225-228-251500-
CENTRAL AND SOUTH CENTRAL TEXAS

CITY           SKY/WX    TMP DP  RH WIND       PRES   REMARKS
GEORGETOWN     SUNNY     79  72  78 SW9       30.06R
AUSTIN/BERGSTM MOSUNNY   81  73  76 SW7       30.05R
AUSTIN/MABRY   SUNNY     80  72  76 VRB3      30.06R
*AUSTIN/EXEC   SUNNY     81  73  78 SW5       30.06R
*LAGO VISTA    SUNNY     79  70  73 SW8       30.08R
SAN MARCOS     PTSUNNY   81  72  74 S7        30.07R
NEW BRAUNFELS  PTSUNNY   82  74  76 S8        30.05R
RANDOLPH AFB   CLOUDY    79  73  83 SW6       30.07R
PT SAN ANTONIO PTSUNNY   79  75  89 S6        30.05R
SAN ANTONIO    CLOUDY    79  74  84 SW6       30.06R
STINSON FIELD  MOSUNNY   80  75  84 S6        30.04R
*PLEASANTON    MOSUNNY   80  74  82 SE6       30.05R
*LA GRANGE     SUNNY     81  77  87 S5        30.04R
*GIDDINGS      SUNNY     79  74  83 CALM      30.09R
*GONZALES      MOSUNNY   81  76  84 S3        30.05R
$$

TXZ163>164-176>182-195>201-210>213-226-227-235-251500-
SOUTHEAST TEXAS

CITY           SKY/WX    TMP DP  RH WIND       PRES   REMARKS
COLLEGE STN    MOSUNNY   79  75  87 S7        30.06R
*BRYAN         SUNNY     80  75  84 MISG      30.06R
*CALDWELL      SUNNY     77  77 100 S6        30.09R
*CROCKETT      SUNNY     82  79  89 S5        30.08R HX  93
*BRENHAM       SUNNY     82  74  78 SW7       30.06R
HUNTSVILLE     MOSUNNY   80  75  84 SW8       30.07R
CONROE         PTSUNNY   80  76  87 W5        30.07R
HOUSTON BUSH   MOSUNNY   82  76  81 W8        30.05R
HOUSTON HOBBY  PTSUNNY   80  75  84 SW3       30.05R
*HOUSTON SW AP PTSUNNY   76  76 100 CALM      30.07R FOG
PEARLAND       PTSUNNY   79  74  84 W3        30.06R
HOUSTON HOOKS  PTSUNNY   81  78  91 W6        30.06R
ELLINGTON FLD  NOT AVBL
SUGAR LAND     PTSUNNY   79  77  94 CALM      30.06R
*HOUSTON EXEC  PTSUNNY   82  77  83 SW5       30.07R HX  91
*CLEVELAND MUN PTSUNNY   81  76  86 NW3       30.07R
*WHARTON       SUNNY     77  76  97 CALM      30.06R FOG
$$

TXZ214>216-236>238-251500-
THE UPPER TEXAS COAST

CITY           SKY/WX    TMP DP  RH WIND       PRES   REMARKS
*ORANGE        CLOUDY    79  79 100 CALM      30.06R
PORT ARTHUR    MOSUNNY   80  73  79 SW10      30.05R
GALVESTON      CLOUDY    81  76  84 NW6       30.06R
ANGLETON       PTSUNNY   77  76  96 CALM      30.05R
*BAY CITY      SUNNY     78  78 100 CALM      30.05R FOG
PALACIOS       MOSUNNY   85  76  74 SW6       30.04R HX  94
$$

TXZ229>234-239>247-251500-
TEXAS COASTAL BEND AND RIO GRANDE PLAINS

CITY           SKY/WX    TMP DP  RH WIND       PRES   REMARKS
VICTORIA       SUNNY     85  77  77 VRB5      30.04R HX  95
*BEEVILLE      MOSUNNY   83  77  80 S9        30.03S HX  92
ROCKPORT       MOSUNNY   85  76  74 S6        30.02R HX  94
*PORT ARANSAS  SUNNY     84  77  81 S6        30.03R HX  93
*PORT LAVACA   SUNNY     83  77  82 S6        30.03R HX  92
*INGLESIDE     MOSUNNY   87  75  66 S7        30.03R HX  97
CORPUS CHRISTI MOSUNNY   84  76  76 S9        30.02R HX  93
CORPUS NAS     MOSUNNY   85  78  80 S10       30.02R HX  96
*ROBSTOWN      SUNNY     85  76  75 SE7       30.02S HX  95
ALICE          SUNNY     83  77  82 SE7       30.01R HX  92
KINGSVILLE NAS MOSUNNY   85  78  80 SE9       30.01R HX  96
COTULLA        PTSUNNY   80  74  81 SE8       30.03R
*FAITH RANCH   SUNNY     79  73  83 SE8       30.02R
LAREDO         SUNNY     83  74  74 SE10      30.03R
$$

TXZ248>255-251500-
DEEP SOUTH TEXAS

CITY           SKY/WX    TMP DP  RH WIND       PRES   REMARKS
BROWNSVILLE    MOSUNNY   84  79  84 S12       30.01R HX  96
PORT ISABEL    MOSUNNY   86  76  71 S10       30.01R HAZE    HX  96
*SOUTH PADRE   SUNNY     84  77  79 S8        30.02R HX  94
HARLINGEN      SUNNY     84  78  82 S10       30.00R HX  95
*HEBBRONVILLE  PTSUNNY   78  74  90 SE6       30.03R
MCALLEN        SUNNY     83  74  74 SE9       30.00S
*WESLACO       SUNNY     83  74  73 S10       30.00S HAZE
FALFURRIAS     MOSUNNY   67  67 100 S10       30.00R
EDINBURG       MOSUNNY   85  75  73 S7        30.01R HX  93
*ZAPATA        NOT AVBL
$$

TXZ213>215-236>238-242>244-246-247-251-254-255-251500-
CMAN STATIONS

STATION/POSITION TIME  TEMP    WIND        PRES    WAVE
                       AIR SEA DIR/SP/G            HT/PER
                 (UTC) (F)     (DEG/KT/KT) (MB)    (FT/S)
SABINE PASS      1400   81 87  280/  3/  6 1017.7
SEA RIM ST PARK  1400   76     270/  5/  6 1018.3
NORTH JETTY/GLS  1400   82 91  320/ 10/ 11   N/A
EAGLE POINT      1400   79 88  340/  3/  4 1017.8
MORGANS POINT    1400   81 91  280/  5/  7 1017.5
MISSION/ARANSAS  1300   81     190/  4     1017.0
PORT O`CONNOR    1400          210/  7/  9   N/A
PORT ARANSAS     1400   83 85  170/  5/  6 1017.5
MALAQUITE BEACH  1400   81 82  160/  5/  6 1016.1
BAFFIN BAY       1400   82 82  170/ 10/ 12 1016.3
PORT ISABEL      1400   84 81  160/ 10/ 11 1016.7
$$

GMZ080-GMZ150>470-251500-
OFFSHORE BUOY REPORTS

STATION/POSITION TIME  TEMP    WIND        PRES    WAVE
                       AIR SEA DIR/SP/G            HT/PER
                 (UTC) (F)     (DEG/KT/KT) (MB)    (FT/S)
90 E PT ARANSAS  1400   83 83  230/  4/  6 1017.5    2/ 4
35 NE PT MANSFLD 1400   82 81  210/  6/  8 1016.4    2/ 4
200 E PT ISABEL  1400   84 85  180/  6/  8 1017.1    1/ 9
$$


USA.gov is the U.S. government's official web portal to all federal, state and local government web resources and services.